Simultaneous Nadir Overpasses (SNOs) Predictions

Prediction of SNOs between TERRA and METOP-C Satellite Orbit:

Table of predicted SNOs for the next 14.0 days since TLE Epoch: 11/13/2020
Index Date (TERRA) Time (TERRA) Lat,Lon (TERRA) SZA (TERRA ) Date (METOP-C) Time (METOP-C) Lat,Lon (METOP-C) SZA (METOP-C ) Distance(km) Time Diff (sec)
1 11/16/2020 08:38:02 81.27, 96.97 103.15 11/16/2020 08:37:07 81.27, 96.81 103.11 2.69 55
2 11/16/2020 09:27:28 -81.29, -95.07 76.80 11/16/2020 09:27:46 -81.28, -95.11 76.80 0.97 18
3 11/19/2020 04:12:16 81.28, 163.63 103.83 11/19/2020 04:11:30 81.27, 163.69 103.82 1.18 46
4 11/19/2020 05:01:43 -81.28, -28.76 76.17 11/19/2020 05:02:10 -81.28, -28.65 76.14 1.91 27
5 11/21/2020 23:46:31 81.27,-130.13 104.40 11/21/2020 23:45:55 81.27,-130.24 104.38 1.81 36
6 11/22/2020 00:35:58 -81.27, 37.50 75.60 11/22/2020 00:36:35 -81.27, 37.39 75.59 1.88 37
7 11/24/2020 19:20:44 81.28, -63.55 104.97 11/24/2020 19:20:17 81.28, -63.40 104.98 2.52 27
8 11/24/2020 20:10:11 -81.28, 104.10 75.02 11/24/2020 20:10:57 -81.28, 104.20 74.99 1.73 46
9 11/27/2020 14:54:58 81.28, 2.98 105.48 11/27/2020 14:54:41 81.28, 3.02 105.47 0.90 17



Historial Predications of SNOs between TERRA and METOP-C
